Vorticity
11 9 13 4 12 34 23 20 51 0 10 16 23 -9 13 4 23 36 2 16 -21 -0 -6 11 10 21 20 5 17 20 9 7 9 13 1 2 7 5 9 10 12 10 9 15 16 11 -3 -9 3 11 10 7 18 -0
23 5 6 10 4 17 32 24 47 -17 25 9 6 27 3 9 21 16 26 -6 9 23 3 14 3 10 34 21 2 9 10 5 3 4 9 10 10 14 12 11 7 12 13 7 12 12 4 10 9 3 8 6 2 11
30 4 -9 17 9 5 26 19 26 55 -11 -21 33 12 12 20 13 9 -20 18 -18 7 16 -6 14 -1 25 21 18 8 8 7 9 10 12 14 9 7 8 7 11 2 7 10 11 15 11 7 10 13 3 4 8 17
5 16 29 7 13 4 12 34 29 28 38 -4 13 1 0 12 5 6 9 10 -6 11 11 9 9 4 26 28 16 17 8 16 9 9 7 7 9 11 11 14 9 8 14 13 12 14 11 3 9 13 0 4 12 27
12 6 -5 21 16 4 8 37 25 20 33 48 23 -17 18 4 -5 5 29 49 3 11 8 -2 10 1 18 31 16 14 12 9 18 19 19 17 13 9 12 9 11 9 10 8 6 5 2 5 14 10 -8 13 27 26
17 20 10 23 8 15 7 34 18 20 23 27 40 45 45 43 33 33 36 -6 10 11 -8 12 4 8 19 17 10 27 22 -1 5 9 7 10 7 14 12 9 9 16 10 4 4 5 3 14 16 3 11 28 25 8
10 9 9 16 10 15 18 32 14 19 20 13 7 22 15 20 45 -7 22 11 17 16 4 3 9 17 24 1 4 -1 26 36 24 13 7 11 3 13 15 12 2 8 6 5 3 5 14 18 0 22 22 10 12 8
21 17 14 7 12 10 29 29 19 24 9 40 13 14 29 -6 4 22 15 17 10 20 8 -3 3 27 3 20 -11 -16 6 26 -3 22 15 16 19 14 23 1 13 8 7 5 4 19 10 8 28 10 12 11 10 12
22 20 18 18 15 27 41 12 20 -33 27 17 20 7 2 12 -3 8 10 3 -4 -0 -6 -14 9 41 6 8 20 -2 12 1 11 13 6 14 15 16 10 11 9 5 5 9 17 3 24 15 13 11 9 15 17 15
14 19 28 31 27 33 32 2 17 -16 7 14 -3 13 -5 6 17 11 8 8 3 16 -7 24 19 39 -6 16 -6 -5 18 12 2 -4 1 1 10 16 13 11 6 6 8 12 5 23 11 12 8 13 10 5 7 5
8 9 17 21 26 37 17 10 11 13 9 10 19 13 2 4 -1 7 8 6 16 39 15 31 44 -5 5 17 4 -30 32 11 8 9 -0 11 3 16 16 6 6 10 9 17 19 10 11 9 12 6 5 8 9 4
6 13 14 23 18 14 19 19 19 13 19 16 21 6 -7 3 30 27 16 19 20 20 31 11 -2 13 -1 -2 4 -6 16 18 8 5 4 1 8 10 1 4 6 4 31 15 9 11 10 8 5 7 9 11 1 11
16 21 22 23 17 14 14 10 8 16 28 33 29 14 28 29 7 10 40 25 26 26 28 28 -1 8 12 -1 9 4 8 18 0 14 22 15 12 12 13 8 12 22 13 10 11 11 7 6 6 7 6 7 13 11
22 35 41 42 34 24 21 24 30 11 -0 -4 -8 2 -8 31 26 27 22 32 31 5 10 -2 -1 14 16 3 12 17 1 5 11 5 2 10 11 11 16 17 19 14 12 10 12 8 5 7 8 9 12 13 13 8
12 15 28 26 21 18 14 3 -1 -1 -18 2 -0 27 25 40 21 -1 3 18 15 11 26 14 21 21 23 12 7 12 10 8 10 11 5 -4 14 26 25 16 11 10 11 9 9 8 8 7 7 8 12 12 16 9
1 8 18 -4 9 7 0 -1 2 4 6 20 11 11 2 -8 -2 0 1 10 21 13 5 7 5 2 -1 -6 -5 -0 1 1 3 12 16 23 26 13 11 11 11 10 9 9 8 9 8 8 6 9 11 12 17 12
8 14 15 -4 -3 4 5 -9 -4 -1 8 9 10 12 10 5 -1 0 6 6 10 7 7 4 6 10 18 10 5 -2 -5 -4 5 19 24 12 11 10 12 11 9 10 9 8 9 10 9 8 8 10 11 13 16 14
-1 -8 1 2 -1 -2 3 6 3 -7 -6 0 6 1 8 3 14 8 5 10 8 7 8 6 8 10 10 8 6 5 -3 7 26 26 7 5 8 9 9 9 9 9 9 9 10 9 10 8 8 11 12 12 14 12
1 4 2 -1 -2 -3 -3 -4 -2 -6 -13 -3 9 12 7 8 13 12 13 10 6 6 8 9 11 9 6 3 2 12 28 24 16 11 9 9 9 10 10 10 10 9 10 9 9 9 11 10 8 10 11 11 14 14
10 6 2 -1 1 -3 -5 -4 -2 -2 -0 2 9 13 21 19 22 20 13 13 15 18 19 19 15 16 14 21 24 16 15 11 9 9 10 11 9 6 6 10 11 12 12 11 8 10 11 11 10 10 10 11 12 13
6 10 10 11 11 12 13 10 10 13 18 21 13 14 14 15 14 13 15 13 16 16 13 19 17 17 14 13 9 11 8 7 9 12 7 1 5 13 12 11 10 12 10 9 11 11 11 11 10 9 10 11 11 11
11 9 4 2 7 6 10 11 13 8 7 11 14 10 8 15 11 11 8 10 9 7 8 11 10 11 12 12 10 7 8 11 7 2 2 11 15 12 11 11 12 12 11 12 12 10 10 10 9 10 11 11 10 10
21 21 19 11 9 10 13 7 7 10 10 11 9 11 10 11 11 8 12 13 12 9 9 9 10 9 7 6 4 3 -2 7 15 12 12 13 12 11 11 12 12 12 11 9 9 9 9 10 10 12 13 13 13 13
9 14 17 17 19 21 13 9 8 9 9 7 11 12 10 10 10 9 10 10 12 14 15 16 17 15 15 17 18 16 13 7 7 11 11 10 10 11 11 11 11 11 12 12 11 10 10 10 11 11 11 10 10 9
7 10 11 14 15 16 13 15 17 16 14 12 11 11 10 11 12 11 10 11 11 10 11 11 10 10 9 9 9 8 10 11 10 9 10 10 10 10 10 11 11 11 10 9 10 9 8 8 9 9 8 10 12 13
6 5 9 9 9 11 13 16 15 14 14 15 15 15 13 13 14 14 12 11 11 11 11 12 12 12 12 12 12 12 12 12 12 11 10 10 10 8 7 8 8 9 8 8 8 9 10 11 11 11 11 14 16 15
10 11 5 6 10 9 9 10 13 16 17 17 15 15 13 14 15 15 12 12 13 13 12 12 11 11 10 10 10 9 9 8 8 8 8 8 8 9 10 11 13 12 15 15 15 15 14 13 12 13 16 16 15 15
20 15 13 9 7 9 13 10 9 9 11 12 13 13 13 13 12 9 7 7 6 7 6 6 6 7 7 7 7 7 7 8 8 8 9 11 14 15 15 15 17 18 19 19 17 15 16 16 19 19 15 14 12 10
15 16 17 18 15 12 9 9 12 11 9 9 8 8 8 8 6 6 6 6 6 6 6 7 7 8 8 9 10 12 13 13 13 13 13 13 15 18 22 21 20 19 18 18 17 16 16 18 15 13 15 15 14 12
16 14 14 14 16 17 16 14 14 13 13 13 13 12 12 11 11 11 10 10 10 10 10 11 12 13 13 14 13 14 14 15 16 18 19 19 17 15 14 14 14 13 12 14 18 19 12 10 10 9 6 3 3 4
12 14 16 16 16 16 15 13 12 12 11 11 11 11 11 11 12 11 12 13 14 16 17 18 19 18 18 17 17 17 16 15 14 15 16 17 16 17 17 15 15 14 16 14 9 6 6 6 6 5 4 5 7 11
-0 4 6 11 15 17 17 15 14 15 15 14 14 14 14 14 14 15 17 19 18 17 14 12 11 10 10 9 9 10 12 13 13 12 11 11 9 9 12 13 12 10 6 5 6 7 9 10 10 11 11 13 17 14
25 18 11 9 9 8 8 10 13 15 18 18 19 19 20 17 16 15 14 11 11 13 15 15 14 16 19 23 24 21 18 15 12 10 8 8 6 7 8 7 7 7 6 6 11 10 10 12 13 15 16 15 13 11
Height
5261 5261 5263 5264 5265 5267 5272 5281 5291 5305 5318 5331 5345 5358 5369 5381 5392 5404 5416 5428 5439 5447 5455 5464 5470 5475 5481 5488 5497 5506 5513 5519 5526 5531 5536 5541 5546 5551 5556 5561 5565 5567 5568 5570 5571 5572 5574 5576 5575 5575 5573 5571 5569 5567
5251 5255 5257 5260 5263 5265 5269 5276 5285 5299 5313 5327 5339 5352 5364 5375 5387 5398 5410 5421 5432 5441 5450 5458 5463 5468 5472 5479 5486 5493 5504 5510 5518 5523 5530 5534 5539 5545 5550 5553 5555 5557 5561 5562 5564 5565 5566 5566 5565 5565 5564 5562 5560 5558
5240 5247 5252 5256 5260 5264 5267 5272 5280 5291 5307 5321 5332 5346 5358 5370 5383 5396 5406 5414 5425 5435 5444 5452 5457 5462 5465 5471 5479 5487 5493 5501 5509 5516 5522 5526 5530 5536 5540 5544 5546 5550 5551 5553 5555 5558 5558 5557 5557 5556 5554 5553 5552 5550
5234 5241 5247 5253 5258 5262 5266 5270 5277 5287 5300 5314 5328 5341 5353 5366 5378 5390 5401 5410 5420 5430 5439 5447 5452 5457 5460 5465 5472 5480 5487 5494 5501 5508 5513 5518 5523 5528 5532 5535 5539 5542 5544 5546 5548 5549 5548 5549 5548 5547 5546 5544 5542 5540
5231 5238 5244 5250 5256 5261 5265 5269 5277 5287 5297 5309 5324 5336 5350 5362 5374 5386 5395 5404 5417 5428 5435 5443 5449 5454 5456 5461 5467 5474 5481 5489 5496 5501 5506 5511 5515 5520 5523 5527 5532 5535 5537 5538 5540 5540 5540 5541 5539 5538 5537 5535 5532 5531
5232 5239 5246 5252 5257 5262 5266 5271 5279 5289 5298 5309 5321 5335 5348 5359 5371 5382 5392 5401 5411 5420 5433 5440 5446 5450 5456 5460 5466 5471 5477 5483 5489 5494 5499 5503 5508 5513 5516 5521 5526 5526 5528 5529 5532 5532 5532 5532 5530 5529 5528 5525 5523 5523
5236 5243 5249 5255 5259 5264 5269 5275 5284 5295 5304 5314 5326 5338 5349 5362 5373 5383 5392 5404 5410 5421 5430 5437 5442 5448 5453 5459 5464 5468 5473 5478 5485 5489 5494 5498 5503 5505 5509 5515 5519 5520 5521 5522 5524 5524 5524 5522 5522 5520 5518 5516 5515 5515
5243 5249 5255 5259 5264 5268 5273 5281 5292 5302 5311 5319 5332 5346 5356 5367 5377 5385 5394 5402 5411 5419 5426 5432 5439 5444 5450 5456 5461 5467 5470 5475 5480 5484 5489 5492 5494 5499 5503 5509 5511 5512 5514 5516 5516 5516 5515 5514 5512 5511 5510 5509 5508 5507
5255 5259 5264 5267 5270 5273 5279 5289 5299 5309 5317 5329 5340 5350 5360 5369 5376 5384 5393 5401 5408 5417 5421 5429 5434 5440 5447 5453 5459 5466 5469 5473 5477 5480 5484 5487 5489 5492 5500 5502 5503 5504 5507 5508 5508 5507 5506 5505 5505 5504 5503 5502 5501 5499
5269 5271 5273 5275 5277 5281 5289 5299 5308 5317 5326 5335 5346 5353 5361 5369 5380 5388 5394 5401 5407 5412 5418 5424 5430 5436 5445 5452 5458 5462 5466 5470 5473 5478 5480 5482 5486 5489 5491 5494 5496 5498 5499 5500 5499 5499 5499 5498 5498 5497 5496 5494 5492 5490
5285 5286 5287 5287 5289 5293 5302 5311 5319 5326 5336 5345 5352 5360 5368 5376 5384 5390 5396 5401 5405 5410 5417 5422 5429 5437 5445 5450 5454 5459 5463 5465 5469 5474 5476 5478 5482 5486 5486 5488 5490 5491 5492 5492 5492 5492 5492 5492 5492 5490 5489 5487 5485 5482
5300 5300 5301 5302 5305 5309 5315 5324 5333 5340 5348 5356 5362 5370 5377 5383 5388 5393 5397 5400 5405 5410 5417 5425 5431 5436 5443 5447 5453 5457 5460 5464 5467 5471 5472 5474 5480 5480 5480 5481 5482 5484 5484 5485 5486 5486 5486 5486 5485 5484 5482 5480 5477 5474
5313 5313 5314 5316 5320 5325 5332 5338 5345 5354 5360 5365 5371 5378 5382 5388 5391 5394 5398 5403 5407 5412 5419 5426 5434 5438 5443 5448 5452 5456 5458 5460 5464 5466 5467 5472 5473 5474 5474 5474 5476 5478 5479 5480 5480 5481 5480 5479 5478 5477 5475 5472 5469 5465
5327 5327 5328 5331 5335 5339 5345 5350 5355 5363 5370 5377 5382 5386 5389 5392 5394 5397 5401 5406 5412 5418 5424 5429 5434 5438 5443 5448 5451 5454 5456 5459 5460 5462 5465 5466 5466 5466 5467 5468 5470 5472 5473 5474 5474 5474 5473 5473 5472 5470 5467 5464 5461 5458
5343 5345 5346 5349 5352 5356 5360 5365 5370 5375 5380 5383 5387 5391 5394 5396 5401 5405 5409 5413 5417 5421 5426 5431 5435 5439 5444 5447 5449 5452 5454 5456 5458 5459 5460 5461 5461 5461 5462 5464 5465 5467 5468 5468 5468 5467 5467 5466 5465 5462 5460 5457 5454 5451
5363 5363 5365 5366 5369 5372 5375 5378 5381 5385 5388 5392 5395 5399 5402 5406 5409 5412 5415 5419 5422 5425 5429 5433 5436 5439 5441 5444 5447 5449 5452 5454 5454 5454 5454 5454 5455 5456 5458 5459 5460 5461 5462 5462 5461 5461 5461 5460 5458 5456 5453 5450 5448 5445
5378 5379 5379 5379 5381 5383 5386 5389 5391 5394 5397 5400 5404 5407 5410 5412 5415 5416 5418 5421 5424 5427 5430 5432 5435 5438 5440 5442 5445 5447 5449 5449 5449 5449 5449 5450 5452 5453 5454 5455 5456 5456 5456 5456 5456 5455 5454 5453 5452 5449 5447 5444 5442 5440
5392 5392 5393 5393 5392 5394 5394 5396 5399 5401 5404 5407 5409 5411 5413 5415 5416 5418 5419 5421 5424 5426 5428 5431 5433 5435 5437 5440 5441 5443 5443 5443 5444 5445 5446 5447 5448 5449 5450 5450 5451 5451 5450 5450 5450 5449 5447 5446 5445 5442 5440 5438 5436 5434
5398 5398 5399 5399 5400 5401 5401 5402 5404 5405 5407 5408 5410 5411 5412 5413 5414 5416 5418 5420 5422 5424 5426 5428 5430 5431 5433 5434 5435 5436 5437 5438 5440 5441 5443 5443 5444 5445 5445 5445 5445 5445 5444 5444 5443 5442 5441 5439 5438 5435 5433 5432 5430 5428
5399 5400 5401 5402 5403 5404 5404 5405 5406 5407 5407 5408 5409 5409 5410 5411 5411 5413 5415 5416 5418 5420 5421 5423 5425 5426 5428 5429 5431 5432 5434 5435 5437 5438 5439 5439 5440 5440 5440 5439 5439 5438 5438 5437 5436 5435 5434 5432 5430 5428 5427 5426 5424 5422
5399 5400 5400 5401 5401 5402 5402 5403 5404 5405 5405 5406 5407 5407 5408 5409 5410 5411 5412 5414 5415 5416 5418 5419 5421 5422 5424 5426 5427 5429 5430 5432 5433 5434 5434 5434 5434 5434 5433 5433 5432 5432 5431 5430 5429 5428 5426 5425 5423 5422 5421 5419 5417 5416
5398 5398 5399 5399 5400 5400 5401 5401 5402 5403 5404 5404 5405 5406 5407 5408 5408 5409 5411 5412 5413 5414 5415 5417 5418 5419 5421 5422 5424 5425 5426 5427 5428 5428 5428 5428 5427 5427 5426 5426 5426 5425 5424 5423 5422 5421 5419 5418 5417 5415 5414 5412 5410 5409
5395 5396 5396 5397 5397 5398 5400 5399 5400 5400 5401 5402 5403 5403 5404 5405 5406 5407 5408 5409 5410 5411 5412 5413 5415 5416 5418 5419 5420 5421 5422 5422 5422 5422 5422 5421 5421 5420 5420 5420 5419 5418 5417 5416 5415 5414 5412 5411 5410 5408 5406 5405 5403 5401
5393 5393 5392 5393 5393 5394 5395 5396 5396 5397 5398 5399 5400 5401 5401 5402 5403 5403 5404 5405 5406 5407 5408 5409 5411 5412 5413 5414 5415 5415 5415 5416 5416 5416 5415 5415 5414 5414 5413 5413 5412 5411 5410 5408 5407 5406 5405 5404 5402 5401 5399 5397 5395 5394
5392 5391 5391 5391 5390 5391 5390 5391 5392 5393 5394 5394 5395 5396 5397 5397 5398 5399 5400 5401 5402 5403 5404 5405 5406 5407 5408 5409 5409 5410 5410 5409 5409 5409 5408 5408 5407 5407 5406 5405 5404 5403 5401 5400 5399 5398 5397 5395 5394 5392 5391 5389 5387 5385
5386 5386 5387 5387 5387 5387 5387 5387 5388 5388 5389 5389 5390 5391 5392 5392 5393 5395 5395 5396 5397 5398 5399 5400 5401 5402 5402 5403 5403 5403 5403 5403 5402 5402 5401 5400 5399 5398 5397 5396 5395 5394 5393 5392 5390 5389 5388 5386 5385 5383 5382 5380 5378 5377
5380 5381 5381 5382 5382 5382 5383 5383 5383 5384 5384 5384 5385 5385 5386 5387 5388 5390 5389 5391 5392 5393 5394 5394 5395 5395 5396 5396 5396 5396 5396 5395 5395 5394 5392 5391 5390 5389 5388 5387 5385 5384 5383 5381 5380 5379 5378 5376 5375 5374 5373 5371 5370 5369
5374 5374 5375 5376 5376 5377 5377 5378 5378 5379 5379 5380 5380 5381 5382 5383 5384 5384 5385 5385 5386 5387 5388 5388 5388 5388 5389 5388 5388 5387 5387 5386 5385 5384 5382 5381 5380 5379 5377 5376 5375 5374 5372 5371 5370 5370 5369 5368 5367 5366 5365 5364 5363 5362
5370 5370 5370 5370 5370 5370 5371 5371 5372 5373 5373 5374 5374 5375 5376 5377 5378 5378 5379 5379 5380 5380 5380 5380 5380 5380 5379 5379 5378 5378 5377 5376 5375 5374 5373 5372 5370 5369 5368 5367 5366 5365 5364 5363 5362 5362 5361 5360 5360 5359 5358 5357 5355 5354
5365 5365 5364 5364 5364 5364 5364 5364 5365 5365 5365 5366 5367 5368 5368 5369 5369 5370 5370 5371 5371 5371 5371 5371 5371 5370 5370 5369 5368 5367 5367 5366 5365 5364 5363 5363 5362 5361 5360 5359 5359 5358 5357 5356 5356 5355 5355 5355 5354 5353 5352 5350 5349 5346
5360 5359 5358 5358 5357 5357 5357 5357 5357 5358 5358 5358 5359 5360 5360 5361 5361 5362 5362 5362 5362 5362 5362 5362 5361 5361 5361 5360 5360 5359 5359 5358 5357 5357 5356 5355 5355 5354 5353 5353 5352 5352 5351 5351 5350 5350 5349 5348 5347 5346 5344 5342 5340 5338
5354 5353 5352 5351 5351 5350 5350 5350 5350 5350 5350 5350 5351 5351 5352 5353 5353 5354 5354 5354 5354 5354 5354 5354 5354 5354 5354 5353 5353 5352 5352 5351 5351 5350 5350 5349 5349 5348 5347 5347 5346 5346 5346 5345 5344 5343 5342 5341 5339 5337 5335 5333 5331 5328
5345 5344 5343 5343 5343 5343 5343 5343 5343 5343 5342 5343 5343 5343 5344 5345 5346 5347 5347 5348 5348 5348 5348 5348 5348 5348 5347 5346 5345 5345 5344 5344 5343 5343 5342 5342 5342 5341 5341 5341 5340 5340 5339 5338 5337 5336 5334 5333 5331 5329 5327 5325 5322 5320